Hugo, OK

12:37 PM CDT on July 22, 2017 (GMT -0500)
Stamper Municipal

Weather History for KHHW - January, 2014

Change the Weather History Date:

Wednesday, January 22, 2014

  Actual Average Record
Temperature  
Mean Temperature 40 °F -  
Max Temperature 56 °F 54 °F 59 °F (2017)
Min Temperature 25 °F 33 °F 25 °F (2014)
Degree Days  
Heating Degree Days 24    
Moisture  
Dew Point 18 °F    
Average Humidity 42    
Maximum Humidity 70    
Minimum Humidity 23    
Precipitation  
Precipitation 0.00 in - - ()
Sea Level Pressure  
Sea Level Pressure 30.16 in    
Wind  
Wind Speed 3 mph (ENE)    
Max Wind Speed 12 mph    
Max Gust Speed 17 mph    
Visibility 10 miles    
Events      
Averages and records for this station are not official NWS values.
T = Trace of Precipitation, MM = Missing Value Source: NWS Daily Summary

Daily Weather History Graph

Daily Weather History Graph

Search for Another Location

Airport or City:

Trip Planner

Search our weather history database for the weather conditions in past years. The results will help you decide how hot, cold, wet, or windy it might be!

Date:

Astronomy

Jan. 22, 2014 Rise Set
Actual Time 7:25 AM CST 5:42 PM CST
Civil Twilight 6:58 AM CST 6:09 PM CST
Nautical Twilight 6:27 AM CST 6:40 PM CST
Astronomical Twilight 5:58 AM CST 7:09 PM CST
Moon 11:56 PM CST 10:45 AM CST
Length of Visible Light 11h 11m
Length of Day
10h 17m
Waning Gibbous, 65% of the Moon is Illuminated
Jan 22
Waning Gibbous
Jan 23
Last Quarter
Jan 30
New
Feb 6
First Quarter
Feb 14
Full

Hourly Weather History & Observations

Time (CST) Temp. Windchill Dew Point Humidity Pressure Visibility Wind Dir Wind Speed Gust Speed Precip Events Conditions
12:15 AM 30.4 °F - 13.6 °F 50% 30.20 in 10.0 mi Calm Calm - N/A   Clear
12:35 AM 30.0 °F - 15.4 °F 55% 30.19 in 10.0 mi Calm Calm - N/A   Clear
12:55 AM 28.6 °F - 16.7 °F 61% 30.18 in 10.0 mi Calm Calm - N/A   Clear
1:15 AM 30.7 °F 27.3 °F 14.0 °F 50% 30.17 in 10.0 mi ESE 3.5 mph - N/A   Clear
1:35 AM 30.4 °F 26.9 °F 13.3 °F 49% 30.18 in 10.0 mi SE 3.5 mph - N/A   Clear
1:55 AM 30.6 °F 27.1 °F 13.5 °F 49% 30.18 in 10.0 mi ESE 3.5 mph - N/A   Clear
2:15 AM 29.5 °F 24.5 °F 14.4 °F 53% 30.17 in 10.0 mi ESE 4.6 mph - N/A   Clear
2:35 AM 30.0 °F 26.5 °F 13.1 °F 49% 30.16 in 10.0 mi SE 3.5 mph - N/A   Clear
2:55 AM 29.8 °F 26.3 °F 13.1 °F 50% 30.16 in 10.0 mi ESE 3.5 mph - N/A   Clear
3:15 AM 30.0 °F 26.5 °F 12.7 °F 49% 30.16 in 10.0 mi East 3.5 mph - N/A   Clear
3:55 AM 29.3 °F 25.6 °F 12.7 °F 50% 30.15 in 10.0 mi East 3.5 mph - N/A   Clear
4:15 AM 29.1 °F 24.1 °F 12.4 °F 50% 30.14 in 10.0 mi ESE 4.6 mph - N/A   Clear
4:35 AM 28.6 °F 24.8 °F 13.6 °F 54% 30.14 in 10.0 mi ESE 3.5 mph - N/A   Clear
4:55 AM 28.4 °F 24.6 °F 13.3 °F 53% 30.13 in 10.0 mi East 3.5 mph - N/A   Clear
5:15 AM 27.5 °F 22.2 °F 14.9 °F 59% 30.13 in 10.0 mi ESE 4.6 mph - N/A   Clear
5:35 AM 28.4 °F 24.6 °F 14.0 °F 55% 30.13 in 10.0 mi SE 3.5 mph - N/A   Clear
5:55 AM 27.9 °F 24.0 °F 14.5 °F 57% 30.14 in 10.0 mi East 3.5 mph - N/A   Clear
6:15 AM 27.5 °F 22.2 °F 14.0 °F 57% 30.15 in 10.0 mi East 4.6 mph - N/A   Clear
6:35 AM 27.7 °F 22.4 °F 14.2 °F 57% 30.15 in 10.0 mi ENE 4.6 mph - N/A   Clear
6:55 AM 27.5 °F 22.2 °F 14.9 °F 59% 30.16 in 10.0 mi ENE 4.6 mph - N/A   Clear
7:15 AM 25.9 °F 21.7 °F 16.9 °F 69% 30.17 in 10.0 mi NE 3.5 mph - N/A   Clear
7:35 AM 26.6 °F 21.2 °F 18.0 °F 70% 30.17 in 10.0 mi East 4.6 mph - N/A   Clear
7:55 AM 28.0 °F 24.2 °F 17.4 °F 64% 30.17 in 10.0 mi East 3.5 mph - N/A   Clear
8:15 AM 30.6 °F 27.1 °F 18.7 °F 61% 30.18 in 10.0 mi East 3.5 mph - N/A   Clear
8:35 AM 32.9 °F 28.5 °F 20.1 °F 59% 30.18 in 10.0 mi East 4.6 mph - N/A   Clear
8:55 AM 34.2 °F 29.0 °F 18.5 °F 53% 30.18 in 10.0 mi East 5.8 mph - N/A   Clear
9:15 AM 36.5 °F 31.8 °F 18.1 °F 47% 30.19 in 10.0 mi East 5.8 mph - N/A   Clear
9:35 AM 38.8 °F 35.4 °F 17.4 °F 42% 30.20 in 10.0 mi ENE 4.6 mph - N/A   Clear
9:55 AM 40.3 °F 37.1 °F 19.0 °F 43% 30.20 in 10.0 mi East 4.6 mph - N/A   Clear
10:15 AM 42.1 °F 40.2 °F 18.1 °F 38% 30.20 in 10.0 mi East 3.5 mph - N/A   Clear
10:35 AM 43.9 °F 41.3 °F 17.2 °F 34% 30.19 in 10.0 mi East 4.6 mph - N/A   Clear
10:55 AM 45.1 °F 41.4 °F 17.6 °F 33% 30.19 in 10.0 mi ENE 6.9 mph - N/A   Clear
11:15 AM 46.0 °F 42.5 °F 17.6 °F 32% 30.18 in 10.0 mi East 6.9 mph - N/A   Clear
11:35 AM 47.5 °F - 17.6 °F 30% 30.17 in 10.0 mi East 5.8 mph - N/A   Clear
11:55 AM 49.6 °F - 18.3 °F 29% 30.16 in 10.0 mi ESE 6.9 mph - N/A   Clear
12:15 PM 49.8 °F - 17.4 °F 28% 30.15 in 10.0 mi ENE 4.6 mph - N/A   Clear
12:35 PM 50.9 °F - 17.1 °F 26% 30.14 in 10.0 mi East 3.5 mph - N/A   Clear
12:55 PM 51.1 °F - 17.8 °F 27% 30.13 in 10.0 mi Calm Calm - N/A   Clear
1:15 PM 51.1 °F - 17.8 °F 27% 30.12 in 10.0 mi NE 3.5 mph - N/A   Clear
1:35 PM 51.6 °F - 17.6 °F 26% 30.11 in 10.0 mi East 3.5 mph - N/A   Clear
1:55 PM 52.7 °F - 17.2 °F 25% 30.10 in 10.0 mi East 3.5 mph - N/A   Clear
2:15 PM 54.5 °F - 18.0 °F 24% 30.10 in 10.0 mi ENE 4.6 mph - N/A   Clear
2:35 PM 54.9 °F - 18.0 °F 24% 30.09 in 10.0 mi East 3.5 mph - N/A   Clear
2:55 PM 56.1 °F - 18.5 °F 23% 30.10 in 10.0 mi NE 4.6 mph - N/A   Clear
3:15 PM 55.0 °F - 18.3 °F 24% 30.10 in 10.0 mi Calm Calm - N/A   Clear
3:35 PM 55.8 °F - 18.1 °F 23% 30.09 in 10.0 mi Calm Calm - N/A   Clear
3:55 PM 56.1 °F - 18.5 °F 23% 30.10 in 10.0 mi Calm Calm - N/A   Clear
4:15 PM 55.6 °F - 19.4 °F 24% 30.10 in 10.0 mi Calm Calm - N/A   Clear
4:35 PM 54.1 °F - 20.7 °F 27% 30.09 in 10.0 mi Calm Calm - N/A   Clear
4:55 PM 54.1 °F - 18.5 °F 25% 30.10 in 10.0 mi Calm Calm - N/A   Clear
5:15 PM 53.2 °F - 20.1 °F 27% 30.10 in 10.0 mi Calm Calm - N/A   Clear
5:35 PM 52.0 °F - 21.2 °F 30% 30.11 in 10.0 mi Calm Calm - N/A   Clear
5:55 PM 52.0 °F - 22.3 °F 31% 30.11 in 10.0 mi NNE 3.5 mph - N/A   Clear
6:15 PM 51.1 °F - 23.0 °F 33% 30.11 in 10.0 mi NNE 3.5 mph - N/A   Clear
6:35 PM 50.4 °F - 23.5 °F 35% 30.12 in 10.0 mi NNE 4.6 mph - N/A   Clear
6:55 PM 50.0 °F - 23.9 °F 36% 30.13 in 10.0 mi NNE 4.6 mph - N/A   Clear
7:15 PM 49.8 °F - 24.1 °F 37% 30.13 in 10.0 mi NNE 6.9 mph - N/A   Clear
7:35 PM 49.1 °F - 24.1 °F 38% 30.14 in 10.0 mi NNE 5.8 mph - N/A   Clear
7:55 PM 48.4 °F - 23.9 °F 38% 30.15 in 10.0 mi NE 5.8 mph - N/A   Clear
8:15 PM 47.7 °F - 23.7 °F 39% 30.17 in 10.0 mi NNE 5.8 mph - N/A   Clear
8:35 PM 46.9 °F - 23.5 °F 40% 30.18 in 10.0 mi NNE 5.8 mph - N/A   Clear
8:55 PM 46.4 °F 42.9 °F 23.5 °F 41% 30.18 in 10.0 mi NNE 6.9 mph - N/A   Clear
9:15 PM 45.7 °F 43.4 °F 23.5 °F 42% 30.19 in 10.0 mi NNE 4.6 mph - N/A   Clear
9:35 PM 45.3 °F 43.0 °F 23.5 °F 42% 30.19 in 10.0 mi NNE 4.6 mph - N/A   Clear
9:55 PM 44.6 °F 41.4 °F 23.9 °F 44% 30.20 in 10.0 mi NNE 5.8 mph - N/A   Clear
10:15 PM 44.6 °F 42.2 °F 24.3 °F 45% 30.20 in 10.0 mi NNE 4.6 mph - N/A   Clear
10:35 PM 45.0 °F 41.2 °F 24.1 °F 44% 30.21 in 10.0 mi NNE 6.9 mph - N/A   Clear
10:55 PM 45.3 °F 41.6 °F 23.9 °F 43% 30.22 in 10.0 mi North 6.9 mph - N/A   Clear
11:15 PM 44.8 °F 39.0 °F 23.7 °F 44% 30.22 in 10.0 mi NNE 11.5 mph 17.3 mph N/A   Clear
11:35 PM 44.2 °F 38.8 °F 23.2 °F 43% 30.22 in 10.0 mi NNE 10.4 mph 17.3 mph N/A   Clear
11:55 PM 43.7 °F 38.6 °F 23.0 °F 44% 30.23 in 10.0 mi NNE 9.2 mph - N/A   Clear